#�ϑ�����,���ϕ���,���ϕ���,�ő啗��,�ő啗����������,�ő�u�ԕ���,�ő�u�ԕ�����������
#(�N����),(m/s)   ,(16����),(m/s)   ,(16����)        ,(m/s)       ,(16����)            
2012/1/25 11:21,3,10,3.3,11,6.1,9
2012/1/25 11:22,3.1,10,3.9,10,6.3,9
2012/1/25 11:23,2.9,11,3,10,5.5,12
2012/1/25 11:24,3.3,11,3.3,10,5.8,12
2012/1/25 11:25,3.3,12,3.4,10,5.7,14
2012/1/25 11:26,3.4,12,3.4,10,6.7,12
2012/1/25 11:27,3.4,12,3.5,10,7.6,12
2012/1/25 11:28,3.3,12,3.4,10,4.8,13
2012/1/25 11:29,3.1,12,3.2,10,3.3,12
2012/1/25 11:30,3.1,12,3.1,10,6.1,14
2012/1/25 11:31,3.1,12,3.2,10,4.8,12
2012/1/25 11:32,3,13,3.1,12,5,13
2012/1/25 11:33,3,13,3.1,12,3.8,13
2012/1/25 11:34,2.9,13,3,12,5.2,11
2012/1/25 11:35,2.9,12,2.9,12,6.7,11
2012/1/25 11:36,2.7,12,2.9,12,4.9,12
2012/1/25 11:37,2.6,12,2.7,12,4.2,13
2012/1/25 11:38,2.6,12,2.6,12,5,11
2012/1/25 11:39,2.5,12,2.6,12,4.3,11
2012/1/25 11:40,2.4,12,2.5,12,4.2,10
2012/1/25 11:41,2.3,12,2.4,12,3.9,10
2012/1/25 11:42,2.3,11,2.4,13,4.4,10
2012/1/25 11:43,2.3,11,2.3,13,4.2,11
2012/1/25 11:44,2.4,11,2.4,12,6.3,11
2012/1/25 11:45,2.3,11,2.4,12,6.9,12
2012/1/25 11:46,2.4,11,2.4,12,6,10
2012/1/25 11:47,2.6,11,2.6,12,6.1,11
2012/1/25 11:48,3,11,3,11,9.1,11
2012/1/25 11:49,3.3,11,3.3,11,9.3,9
2012/1/25 11:50,3.5,11,3.5,11,9.4,10
2012/1/25 11:51,3.7,11,3.7,11,9.4,10
2012/1/25 11:52,4.1,10,4.1,11,12.1,11
2012/1/25 11:53,4.4,11,4.4,11,8.3,10
2012/1/25 11:54,4.3,10,4.4,11,6.4,10
2012/1/25 11:55,4.2,10,4.2,11,6.1,9
2012/1/25 11:56,4.1,10,4.2,11,6,10
2012/1/25 11:57,4.1,10,4.2,11,6.1,10
2012/1/25 11:58,3.9,10,4.1,11,6.1,9
2012/1/25 11:59,3.7,10,3.8,11,6.2,10
2012/1/25 12:00,3.7,10,3.7,11,6.4,10
2012/1/25 12:01,3.6,10,3.7,11,5.4,11
2012/1/25 12:02,3.1,10,3.5,11,4.1,8
2012/1/25 12:03,3,10,3.1,11,6.7,9
2012/1/25 12:04,3,10,3.1,10,5.4,9
2012/1/25 12:05,2.9,10,3,10,3.7,12
2012/1/25 12:06,2.8,10,2.9,10,4.3,12
2012/1/25 12:07,2.9,11,2.9,10,6.2,12
2012/1/25 12:08,2.9,11,2.9,10,6.8,13
2012/1/25 12:09,3.1,11,3.1,10,9.3,10
2012/1/25 12:10,3.1,11,3.2,10,9.2,10
2012/1/25 12:11,3.1,11,3.1,10,8.9,10
2012/1/25 12:12,3.3,11,3.3,11,8.7,10
2012/1/25 12:13,3.5,11,3.5,11,7.4,10
2012/1/25 12:14,3.6,11,3.6,11,5.6,12
2012/1/25 12:15,3.7,11,3.7,11,3.9,10
2012/1/25 12:16,3.7,11,3.7,11,4.3,10
2012/1/25 12:17,3.5,11,3.7,11,5.5,11
2012/1/25 12:18,3.5,11,3.5,11,5.4,10
2012/1/25 12:19,3.4,11,3.5,11,9,10
2012/1/25 12:20,3.5,11,3.5,11,8.3,10
2012/1/25 12:21,3.7,11,3.7,11,9.2,11
2012/1/25 12:22,3.7,11,3.7,11,11,10
2012/1/25 12:23,3.9,11,4,11,11.5,11
2012/1/25 12:24,3.9,11,4,11,6.4,12
2012/1/25 12:25,4.1,11,4.1,11,6.3,11
2012/1/25 12:26,4,11,4.1,11,4.1,9
2012/1/25 12:27,3.9,11,4,11,4.4,9
2012/1/25 12:28,3.8,11,3.9,11,4.1,10
2012/1/25 12:29,3.8,11,3.9,11,7.9,9
2012/1/25 12:30,3.8,11,3.8,11,6,11
2012/1/25 12:31,3.6,11,3.8,11,7.7,11
2012/1/25 12:32,3.6,11,3.7,11,8.5,9
2012/1/25 12:33,3.5,11,3.6,11,9.1,11
2012/1/25 12:34,3.5,11,3.5,11,7.8,11
2012/1/25 12:35,3.3,11,3.5,11,6.2,11
2012/1/25 12:36,3.4,11,3.4,11,3.6,12
2012/1/25 12:37,3.6,11,3.6,11,7.8,10
2012/1/25 12:38,3.7,11,3.8,11,6.8,11
2012/1/25 12:39,3.7,11,3.7,11,7.8,9
2012/1/25 12:40,3.8,11,3.8,11,10.6,9
2012/1/25 12:41,3.9,11,3.9,11,8.3,10
2012/1/25 12:42,3.9,11,4,11,9.4,9
2012/1/25 12:43,3.8,11,3.9,11,8.7,10
2012/1/25 12:44,3.8,11,3.9,11,5.6,13
2012/1/25 12:45,3.9,11,3.9,11,5.4,13
2012/1/25 12:46,3.9,11,4,11,4.5,11
2012/1/25 12:47,3.6,11,3.9,11,3.1,9
2012/1/25 12:48,3.4,11,3.6,11,5.8,10
2012/1/25 12:49,3.4,11,3.4,11,5.4,9
2012/1/25 12:50,3.1,11,3.4,11,6.1,9
2012/1/25 12:51,3,11,3.1,11,6.5,9
2012/1/25 12:52,3.4,11,3.4,11,10.1,10
2012/1/25 12:53,3.4,11,3.4,11,8.1,11
2012/1/25 12:54,3.6,11,3.6,11,7.8,9
2012/1/25 12:55,3.7,10,3.7,11,8.4,10
2012/1/25 12:56,4,10,4,10,7.6,9
2012/1/25 12:57,4.4,10,4.4,10,7.6,10
2012/1/25 12:58,4.6,10,4.6,10,7,10
2012/1/25 12:59,4.7,10,4.7,10,8.7,10
2012/1/25 13:00,4.9,10,4.9,10,8.3,11
2012/1/25 13:01,4.9,10,4.9,10,8.4,12
2012/1/25 13:02,4.4,10,4.9,10,7.5,14
2012/1/25 13:03,4.5,10,4.5,10,7.5,12
2012/1/25 13:04,4.4,11,4.5,10,6.8,12
2012/1/25 13:05,4.3,11,4.4,10,5.2,13
2012/1/25 13:06,4,11,4.2,10,5,12
2012/1/25 13:07,3.9,11,4,10,4.8,10
2012/1/25 13:08,3.7,12,3.8,10,5.2,13
2012/1/25 13:09,3.6,12,3.7,10,3.7,12
2012/1/25 13:10,3.5,12,3.5,10,6.4,12
2012/1/25 13:11,3.5,12,3.5,10,5.4,12
2012/1/25 13:12,3.5,12,3.5,10,4.1,12
2012/1/25 13:13,3.2,12,3.5,11,4.1,13
2012/1/25 13:14,3.1,12,3.2,11,5.4,10
2012/1/25 13:15,3,12,3.1,11,4.9,9
2012/1/25 13:16,3.1,12,3.1,11,5.2,9
2012/1/25 13:17,3.1,12,3.1,11,4.8,10
2012/1/25 13:18,3.1,11,3.1,12,5.6,9
2012/1/25 13:19,3.2,11,3.2,12,6.5,10
2012/1/25 13:20,3,11,3.2,12,3.9,10
2012/1/25 13:21,2.7,11,3,12,3.6,10
2012/1/25 13:22,2.6,10,2.7,12,3.3,9
2012/1/25 13:23,2.6,10,2.6,12,5.6,12
2012/1/25 13:24,2.7,11,2.7,11,5.1,12
2012/1/25 13:25,2.7,11,2.7,11,4.1,13
2012/1/25 13:26,2.4,11,2.7,11,4.2,10
2012/1/25 13:27,2.4,11,2.4,11,3.1,9
2012/1/25 13:28,2.2,11,2.3,11,4.2,9
2012/1/25 13:29,2,11,2.2,11,3.6,12
2012/1/25 13:30,2.3,12,2.3,11,5.5,13
2012/1/25 13:31,2.4,12,2.4,11,5.4,12
2012/1/25 13:32,2.5,12,2.5,10,4.7,13
2012/1/25 13:33,2.4,12,2.5,10,4.7,13
2012/1/25 13:34,2.3,12,2.4,11,4.3,11
2012/1/25 13:35,2.2,12,2.3,11,4.5,9
2012/1/25 13:36,2.3,12,2.3,12,4.8,12
2012/1/25 13:37,2.4,12,2.4,12,6.1,11
2012/1/25 13:38,2.5,12,2.5,12,4.2,12
2012/1/25 13:39,2.6,12,2.6,12,4.1,14
2012/1/25 13:40,2.4,12,2.5,12,2.9,15
2012/1/25 13:41,2.3,12,2.4,12,4.5,11
2012/1/25 13:42,2.3,12,2.3,12,3.2,12
2012/1/25 13:43,2.4,12,2.4,12,6.4,10
2012/1/25 13:44,2.3,12,2.4,12,4.1,10
2012/1/25 13:45,2.4,12,2.4,12,4.2,14
2012/1/25 13:46,2.3,12,2.4,12,2.9,12
2012/1/25 13:47,2.2,12,2.4,12,2.7,13
2012/1/25 13:48,2.3,12,2.3,12,6.8,16
2012/1/25 13:49,2.3,13,2.3,12,3.6,14
2012/1/25 13:50,2.2,13,2.3,12,2.5,13
2012/1/25 13:51,2.2,13,2.3,12,4.1,12
2012/1/25 13:52,2.2,13,2.2,12,4.4,15
2012/1/25 13:53,2.1,13,2.2,12,2.7,15
2012/1/25 13:54,2,13,2.1,12,2,12
2012/1/25 13:55,1.9,14,2,12,2.9,14
2012/1/25 13:56,1.9,14,1.9,12,4.1,12
2012/1/25 13:57,1.9,14,1.9,12,3.2,14
2012/1/25 13:58,2,14,2,12,6.9,13
2012/1/25 13:59,2.1,13,2.1,13,4.7,13
2012/1/25 14:00,2.2,13,2.2,13,3.9,12
2012/1/25 14:01,2.1,13,2.2,13,2.5,10
2012/1/25 14:02,2,13,2.1,13,1.6,9
2012/1/25 14:03,2.1,12,2.1,13,4.7,10
2012/1/25 14:04,2.2,12,2.2,13,3.6,10
2012/1/25 14:05,2.2,12,2.2,13,4.3,10
2012/1/25 14:06,2.2,12,2.2,13,3.9,12
2012/1/25 14:07,2.2,11,2.2,13,4.3,10
2012/1/25 14:08,2.2,11,2.2,13,5.7,11
2012/1/25 14:09,2.1,11,2.2,13,4.4,13
2012/1/25 14:10,2,11,2.1,13,4.2,9
2012/1/25 14:11,2.1,11,2.1,12,4.4,10
2012/1/25 14:12,2.3,11,2.3,11,4.4,13
2012/1/25 14:13,2.3,11,2.3,11,4.5,10
2012/1/25 14:14,2.3,11,2.3,11,2.5,11
2012/1/25 14:15,2.1,11,2.2,11,2,13
2012/1/25 14:16,2.1,11,2.1,11,3.3,12
2012/1/25 14:17,2,11,2.1,11,3.3,9
2012/1/25 14:18,1.7,11,2,11,2.5,10
2012/1/25 14:19,1.7,11,1.7,11,3.6,10
2012/1/25 14:20,1.7,11,1.8,11,4.1,10
2012/1/25 14:21,1.8,11,1.8,11,4.3,10
2012/1/25 14:22,1.9,10,1.9,11,4.4,9
2012/1/25 14:23,1.8,10,1.9,11,4.9,9
2012/1/25 14:24,1.9,10,1.9,11,4.9,9
2012/1/25 14:25,2,10,2,11,3.1,11
2012/1/25 14:26,2.1,10,2.1,11,4.8,10
2012/1/25 14:27,2.3,10,2.3,10,4.7,10
2012/1/25 14:28,2.4,10,2.5,10,4.3,9
2012/1/25 14:29,2.6,10,2.6,10,4.9,11
2012/1/25 14:30,2.7,10,2.7,10,4.4,11
2012/1/25 14:31,2.7,10,2.7,10,4.1,10
2012/1/25 14:32,2.5,10,2.7,10,2.7,10
2012/1/25 14:33,2.5,10,2.5,10,3.1,8
2012/1/25 14:34,2.5,10,2.5,10,4.9,9
2012/1/25 14:35,2.6,10,2.6,10,4.2,10
2012/1/25 14:36,2.4,10,2.6,10,3.6,9
2012/1/25 14:37,2.3,10,2.4,10,4.9,10
2012/1/25 14:38,2.4,10,2.4,10,4.8,9
2012/1/25 14:39,2.2,10,2.4,10,3.7,8
2012/1/25 14:40,2.2,9,2.2,10,6,9
2012/1/25 14:41,2.1,9,2.2,10,4.2,8
2012/1/25 14:42,2.2,9,2.2,10,4.9,8
2012/1/25 14:43,2.3,9,2.3,10,4.8,9
2012/1/25 14:44,2.3,9,2.3,10,4.9,9
2012/1/25 14:45,2.3,9,2.3,10,5.4,9
2012/1/25 14:46,2.6,9,2.6,9,5.6,10
2012/1/25 14:47,2.5,9,2.6,9,5,9
2012/1/25 14:48,2.5,9,2.5,9,4.7,10
2012/1/25 14:49,2.7,9,2.7,9,4.7,10
2012/1/25 14:50,2.6,9,2.7,9,3.5,11
2012/1/25 14:51,2.6,9,2.6,9,3.3,9
2012/1/25 14:52,2.5,9,2.6,9,3.2,10
2012/1/25 14:53,2.5,9,2.5,9,4.1,9
2012/1/25 14:54,2.4,9,2.5,9,6,9
2012/1/25 14:55,2.3,9,2.4,9,2.7,11
2012/1/25 14:56,2,9,2.2,9,3.2,8
2012/1/25 14:57,1.9,9,2,9,1.8,9
2012/1/25 14:58,1.8,9,1.9,9,3,9
2012/1/25 14:59,1.6,9,1.8,9,3.1,8
2012/1/25 15:00,1.5,9,1.6,9,2,8
2012/1/25 15:01,1.4,9,1.4,9,1.5,9
2012/1/25 15:02,1.4,9,1.4,9,3,10
2012/1/25 15:03,1.3,9,1.4,9,1.8,9
2012/1/25 15:04,1.3,9,1.3,9,3.7,10
2012/1/25 15:05,1.3,9,1.3,9,4.7,9
2012/1/25 15:06,1.4,9,1.4,9,4.7,9
2012/1/25 15:07,1.5,9,1.5,9,4.2,8
2012/1/25 15:08,1.7,9,1.7,9,4.5,10
2012/1/25 15:09,1.7,10,1.7,9,3.5,10
2012/1/25 15:10,1.8,10,1.8,10,3.5,9
2012/1/25 15:11,1.9,10,1.9,10,3.3,9
2012/1/25 15:12,1.9,10,1.9,10,3,9
2012/1/25 15:13,2,10,2,10,3.1,10
2012/1/25 15:14,2,10,2,10,4.5,9
2012/1/25 15:15,2,9,2.1,9,3.3,10
2012/1/25 15:16,2,9,2,9,3.9,9
2012/1/25 15:17,2,10,2,9,3.7,9
2012/1/25 15:18,1.8,10,2,9,2.1,10
2012/1/25 15:19,1.7,9,1.8,9,3.2,9
2012/1/25 15:20,1.7,9,1.7,9,3.2,9
2012/1/25 15:21,1.7,9,1.7,9,3.9,9
2012/1/25 15:22,1.7,9,1.7,9,2.7,9
2012/1/25 15:23,1.6,9,1.7,9,2.2,9
2012/1/25 15:24,1.5,9,1.6,9,2.9,9
2012/1/25 15:25,1.4,10,1.5,10,1.3,9
2012/1/25 15:26,1.3,10,1.4,9,1.9,16
2012/1/25 15:27,1.2,11,1.3,10,2.5,15
2012/1/25 15:28,1.2,11,1.2,10,2.6,16
2012/1/25 15:29,1.3,12,1.3,9,2.9,16
2012/1/25 15:30,1.5,13,1.5,9,5.1,1
2012/1/25 15:31,1.7,14,1.7,9,6.4,1
2012/1/25 15:32,1.7,15,1.7,9,5.2,1
2012/1/25 15:33,1.9,16,1.9,16,4.1,15
2012/1/25 15:34,1.9,16,1.9,16,3.6,15
2012/1/25 15:35,2.1,16,2.1,16,3.6,12
2012/1/25 15:36,2.2,16,2.2,16,2.6,13
2012/1/25 15:37,2.2,15,2.2,16,2.1,14
2012/1/25 15:38,2.1,15,2.2,16,3,9
2012/1/25 15:39,2,15,2.1,16,1.1,13
2012/1/25 15:40,1.9,14,2,16,3.2,14
2012/1/25 15:41,1.7,14,1.9,16,5.1,12
2012/1/25 15:42,1.9,14,1.9,16,6.5,13
2012/1/25 15:43,1.9,13,1.9,16,3.8,13
2012/1/25 15:44,2,13,2,16,4.5,11
2012/1/25 15:45,1.9,12,2,16,4.2,10
2012/1/25 15:46,1.9,12,1.9,16,3.7,12
2012/1/25 15:47,2,12,2,15,2.7,10
2012/1/25 15:48,2,12,2,15,2.9,10
2012/1/25 15:49,2.2,12,2.2,12,2.9,11
2012/1/25 15:50,2,11,2.2,12,1.4,9
2012/1/25 15:51,1.8,11,2,12,1.4,6
2012/1/25 15:52,1.6,10,1.8,12,0.9,5
2012/1/25 15:53,1.4,10,1.5,12,2.5,16
2012/1/25 15:54,1.4,11,1.4,12,2.9,3
2012/1/25 15:55,1.3,11,1.4,12,2.5,5
2012/1/25 15:56,1.3,12,1.3,12,3.7,11
2012/1/25 15:57,1.4,13,1.4,12,6,10
2012/1/25 15:58,1.5,13,1.5,12,5.1,9
2012/1/25 15:59,1.5,14,1.5,12,3.7,13
2012/1/25 16:00,1.8,13,1.8,11,6.1,12
2012/1/25 16:01,1.9,13,1.9,13,3.6,11
2012/1/25 16:02,2.1,13,2.1,13,6.7,12
2012/1/25 16:03,2.2,13,2.2,13,6.8,12
2012/1/25 16:04,2.2,13,2.3,13,4.7,14
2012/1/25 16:05,2.4,13,2.4,13,4.3,4
2012/1/25 16:06,2.4,13,2.4,13,3.2,4
2012/1/25 16:07,2.4,13,2.4,13,5.8,10
2012/1/25 16:08,2.8,13,2.8,13,9,15
2012/1/25 16:09,2.9,14,2.9,13,6.5,15
2012/1/25 16:10,2.7,14,2.9,13,2.4,1
2012/1/25 16:11,2.7,14,2.7,13,4.2,12
2012/1/25 16:12,2.6,14,2.8,13,2,14
2012/1/25 16:13,2.5,14,2.6,13,2.7,12
2012/1/25 16:14,2.4,14,2.5,13,1.6,14
2012/1/25 16:15,2.1,14,2.4,13,0.6,12
2012/1/25 16:16,2.1,14,2.1,13,2.4,13
2012/1/25 16:17,1.8,14,2.1,13,2.5,5
2012/1/25 16:18,1.5,14,1.8,13,5.2,13
2012/1/25 16:19,1.6,14,1.6,14,5.8,14
2012/1/25 16:20,1.7,13,1.7,14,4.4,13
2012/1/25 16:21,1.8,13,1.8,14,4.9,16
2012/1/25 16:22,1.8,13,1.8,14,3,14
2012/1/25 16:23,2,13,2,14,5.4,13
2012/1/25 16:24,2.2,13,2.2,14,4.5,9
2012/1/25 16:25,2.4,13,2.4,13,4.3,10
2012/1/25 16:26,2.5,13,2.5,13,5.5,13
2012/1/25 16:27,2.7,13,2.7,13,6.8,13
2012/1/25 16:28,2.5,13,2.7,13,3.3,13
2012/1/25 16:29,2.4,12,2.5,13,4.2,10
2012/1/25 16:30,2.4,12,2.4,13,4.1,10
2012/1/25 16:31,2.5,12,2.5,13,6,12
2012/1/25 16:32,2.6,12,2.6,13,5.8,12
2012/1/25 16:33,2.5,12,2.6,13,3.6,13
2012/1/25 16:34,2.4,12,2.5,13,1.8,14
2012/1/25 16:35,2.4,12,2.4,13,5.5,12
2012/1/25 16:36,2.5,12,2.6,13,7,12
2012/1/25 16:37,2.7,12,2.7,13,6.2,15
2012/1/25 16:38,2.9,12,2.9,12,6.8,15
2012/1/25 16:39,2.9,13,2.9,12,3.9,14
2012/1/25 16:40,3.1,13,3.1,13,6.7,15
2012/1/25 16:41,2.9,14,3.1,13,4.2,2
2012/1/25 16:42,2.6,14,2.8,13,2.2,1
2012/1/25 16:43,2.5,14,2.6,13,1.3,8
2012/1/25 16:44,2.6,14,2.6,13,3.8,9
2012/1/25 16:45,2.7,15,2.7,13,6.2,13
2012/1/25 16:46,2.7,14,2.7,13,7.2,12
2012/1/25 16:47,2.6,14,2.7,13,5.2,14
2012/1/25 16:48,2.6,14,2.6,13,6.5,14
2012/1/25 16:49,2.8,14,2.8,13,9.7,13
2012/1/25 16:50,2.8,13,2.8,13,6.8,13
2012/1/25 16:51,2.9,13,2.9,13,5.1,10
2012/1/25 16:52,3.3,12,3.3,12,8.7,12
2012/1/25 16:53,3.6,12,3.6,12,5.5,11
2012/1/25 16:54,3.8,12,3.8,12,7.8,10
2012/1/25 16:55,3.7,12,3.8,12,4.4,12
2012/1/25 16:56,3.6,12,3.7,12,7.1,10
2012/1/25 16:57,3.4,12,3.6,12,6.2,13
2012/1/25 16:58,3.6,12,3.6,12,6.8,10
2012/1/25 16:59,3.3,11,3.5,12,6.9,10
2012/1/25 17:00,3.3,11,3.3,12,6.8,12
2012/1/25 17:01,3.5,11,3.5,12,8.3,10
2012/1/25 17:02,3.1,11,3.5,12,2.5,10
2012/1/25 17:03,3,11,3.1,12,3.5,12
2012/1/25 17:04,2.8,12,3,12,3,14
2012/1/25 17:05,2.9,12,2.9,12,5.1,12
2012/1/25 17:06,3,12,3,12,7.5,13
2012/1/25 17:07,3.2,12,3.2,12,6.4,12
2012/1/25 17:08,3,12,3.2,12,5.5,12
2012/1/25 17:09,3.1,13,3.1,11,6.3,14
2012/1/25 17:10,2.9,13,3.1,11,5.6,15
2012/1/25 17:11,2.7,13,2.8,11,3.8,12
2012/1/25 17:12,3,13,3,12,7.5,13
2012/1/25 17:13,3.1,13,3.1,12,4.8,10
2012/1/25 17:14,3.3,13,3.3,13,6.9,13
2012/1/25 17:15,3.3,13,3.3,13,5.1,10
2012/1/25 17:16,3.2,13,3.3,13,5.4,12
2012/1/25 17:17,2.9,13,3.1,13,4.3,15
2012/1/25 17:18,2.8,13,2.9,13,4.1,13
2012/1/25 17:19,2.9,12,2.9,13,9.1,12
2012/1/25 17:20,3.2,12,3.2,13,9.4,12
2012/1/25 17:21,3.2,12,3.3,13,6.5,15
2012/1/25 17:22,3,12,3.2,13,5.2,10
2012/1/25 17:23,3.1,12,3.1,13,6.4,10
2012/1/25 17:24,3,12,3.1,13,5.6,12
2012/1/25 17:25,2.9,12,3,13,4.5,9
2012/1/25 17:26,2.7,12,2.9,12,4.3,12
2012/1/25 17:27,2.7,12,2.7,12,2.1,11
2012/1/25 17:28,2.7,11,2.8,12,4.2,9
2012/1/25 17:29,2.6,11,2.7,12,6.1,9
2012/1/25 17:30,2.5,11,2.6,12,9.1,13
2012/1/25 17:31,2.5,11,2.6,12,6.9,15
2012/1/25 17:32,2.6,11,2.6,12,7.4,12
2012/1/25 17:33,2.6,11,2.7,12,8.6,12
2012/1/25 17:34,2.6,12,2.7,12,6,11
2012/1/25 17:35,2.7,12,2.7,12,3.7,1
2012/1/25 17:36,2.7,12,2.7,12,4.5,6
2012/1/25 17:37,2.8,12,2.8,12,5.7,13
2012/1/25 17:38,3,13,3,13,5.7,12
2012/1/25 17:39,3.2,13,3.2,13,8.4,12
2012/1/25 17:40,3.1,13,3.2,13,6.3,12
2012/1/25 17:41,3,13,3.1,13,3.9,15
2012/1/25 17:42,3,13,3.1,13,5.8,11
2012/1/25 17:43,3,13,3,13,6.3,11
2012/1/25 17:44,2.9,13,3,13,7.7,12
2012/1/25 17:45,3.1,12,3.1,13,6.3,12
2012/1/25 17:46,3.1,12,3.2,13,4.3,12
2012/1/25 17:47,3.2,12,3.3,12,8.7,10
2012/1/25 17:48,3.4,12,3.4,12,7.2,12
2012/1/25 17:49,3.3,12,3.4,12,7.7,12
2012/1/25 17:50,3.2,12,3.3,12,4.1,12
2012/1/25 17:51,3.3,12,3.3,12,3.2,12
2012/1/25 17:52,3.2,12,3.3,12,5.1,10
2012/1/25 17:53,3,12,3.2,12,3.6,16
2012/1/25 17:54,2.8,12,3,12,4.7,1
2012/1/25 17:55,2.6,12,2.8,12,2.2,12
2012/1/25 17:56,2.6,12,2.6,12,2.9,10
2012/1/25 17:57,2.4,12,2.5,12,3.7,12
2012/1/25 17:58,2.3,13,2.4,12,5.2,14
2012/1/25 17:59,2,13,2.2,12,4.7,14
2012/1/25 18:00,2.2,13,2.2,12,7.2,11
2012/1/25 18:01,2.1,12,2.2,12,3.8,10
2012/1/25 18:02,1.9,12,2.1,12,3.6,10
2012/1/25 18:03,2,12,2,12,3.5,11
2012/1/25 18:04,2,12,2,12,3.8,11
2012/1/25 18:05,2.2,12,2.2,12,5.7,10
2012/1/25 18:06,2.5,11,2.5,12,5,9
2012/1/25 18:07,2.5,11,2.5,11,5,11
2012/1/25 18:08,2.4,11,2.5,11,3.3,10
2012/1/25 18:09,2.2,11,2.4,11,1.9,13
2012/1/25 18:10,2,11,2.2,11,2.7,13
2012/1/25 18:11,2,11,2,11,4.4,13
2012/1/25 18:12,2.3,12,2.3,11,5.4,14
2012/1/25 18:13,2.3,12,2.3,11,3.6,9
2012/1/25 18:14,2.5,12,2.5,11,8.3,12
2012/1/25 18:15,2.8,12,2.8,12,10,12
2012/1/25 18:16,2.8,12,2.8,12,6.3,11
2012/1/25 18:17,2.7,12,2.8,12,4.4,14
2012/1/25 18:18,2.8,13,2.8,12,4.8,12
2012/1/25 18:19,3,13,3,13,4.1,12
2012/1/25 18:20,3,13,3,13,3.9,15
2012/1/25 18:21,3.2,13,3.2,13,4.2,13
2012/1/25 18:22,3,13,3.2,13,2.6,10
2012/1/25 18:23,3,13,3,13,5.4,13
2012/1/25 18:24,3,13,3.1,13,7,13
2012/1/25 18:25,2.7,13,3,13,4.9,14
2012/1/25 18:26,2.7,13,2.7,13,3.6,14
2012/1/25 18:27,2.7,13,2.7,13,4.7,13
2012/1/25 18:28,2.7,13,2.7,13,3.9,12
2012/1/25 18:29,2.7,13,2.8,13,4.7,13
2012/1/25 18:30,2.7,13,2.7,13,4.2,13
2012/1/25 18:31,2.7,14,2.7,13,5.2,13
2012/1/25 18:32,3,14,3,13,6.5,15
2012/1/25 18:33,3.1,14,3.2,14,6.1,16
2012/1/25 18:34,2.9,14,3.1,14,4.4,16
2012/1/25 18:35,2.7,14,2.9,14,3.1,14
2012/1/25 18:36,2.6,14,2.7,14,3.7,15
2012/1/25 18:37,2.7,14,2.7,14,5.4,13
2012/1/25 18:38,2.8,14,2.8,14,5.1,13
2012/1/25 18:39,2.9,14,2.9,14,4.7,14
2012/1/25 18:40,2.9,14,3,14,3.1,14
2012/1/25 18:41,2.8,14,2.9,14,4.8,13
2012/1/25 18:42,2.6,14,2.8,14,4.9,13
2012/1/25 18:43,2.5,13,2.6,14,3.9,12
2012/1/25 18:44,2.4,13,2.5,14,3.1,16
2012/1/25 18:45,2.4,13,2.4,14,3.7,16
